[[{"header":{"parameterUnit":"m.s-1","parameterCategory":1,"la1":30.2991,"la2":30.254,"lo1":-89.0895,"lo2":-89.0444,"dy":0.0017,"dx":0.0017,"nx":28,"ny":28,"refTime":"2024-05-17T03:00:00:Z","depth":0,"parameterNumber":2,"parameterNumberName":"U-component_of_WINDS"},"data":[0,0,0,0,0,0,0,0,0,0,0,0,0,0,0,0,0,0,0,0,0,0,0,0,0,0,0,0,0,0,0,0,0,0,0,0,0,0,0,0,0,0,0,0,0,0,0,0,0,0,0,0,0,0,0,0,0,0,-1.6232,-1.6234,0,-1.6438,-1.644,-1.6443,-1.6454,-1.6452,-1.6449,-1.6447,-1.6666,-1.6673,-1.6681,0,0,0,0,0,0,0,0,0,0,0,0,0,-1.5856,-1.5863,-1.6231,-1.6234,-1.6237,-1.6438,-1.644,-1.6443,-1.6455,-1.6452,-1.6449,-1.6446,-1.6663,-1.6672,-1.6682,0,0,0,0,0,0,0,0,0,0,0,0,0,-1.6037,-1.5865,-1.6231,-1.6266,-1.6271,-1.6437,-1.6441,-1.6444,-1.6455,-1.6452,-1.6448,-1.6445,-1.666,-1.6672,-1.6683,-1.683,0,0,-1.672,-1.6726,0,0,0,0,0,0,0,0,-1.6027,-1.6051,-1.6259,-1.6264,-1.627,-1.6416,-1.6388,-1.6574,-1.6456,-1.6386,-1.6447,-1.6443,-1.6586,-1.6604,-1.6651,-1.684,-1.685,-1.6721,-1.6729,-1.6734,-1.6737,0,0,0,0,0,0,0,-1.6014,-1.6042,-1.6313,-1.6262,-1.6269,-1.6275,-1.6297,-1.6424,-1.6504,-1.6391,-1.6393,-1.6417,-1.6589,-1.6639,-1.6656,-1.6853,-1.6721,-1.6732,-1.6739,-1.6744,-1.7179,-1.7183,0,0,0,0,0,0,-1.5994,-1.6031,-1.6307,-1.632,-1.6137,-1.6285,-1.6309,-1.6373,-1.6502,-1.6518,-1.642,-1.6416,-1.662,-1.6642,-1.6664,-1.6848,-1.6734,-1.6745,-1.6752,-1.7175,-1.718,-1.7184,0,0,0,0,0,0,-1.5985,-1.6018,-1.6298,-1.6176,-1.6212,-1.6295,-1.6367,-1.6379,-1.643,-1.6523,-1.6539,-1.6456,-1.6618,-1.6647,-1.6789,-1.6855,-1.6751,-1.6762,-1.7169,-1.7176,-1.7182,-1.7214,0,0,0,0,0,0,-1.5975,-1.6015,-1.6069,-1.6177,-1.6218,-1.6418,-1.6371,-1.6386,-1.645,-1.6448,-1.6562,-1.6577,-1.6618,-1.6771,-1.6801,-1.687,-1.6771,-1.7164,-1.7172,-1.718,-1.7208,-1.7221,-1.7232,0,0,0,0,0,-1.5961,-1.607,-1.6072,-1.6105,-1.6287,-1.6421,-1.6446,-1.6488,-1.6455,-1.6512,-1.6573,-1.6573,-1.6843,-1.6786,-1.682,-1.6893,-1.716,-1.717,-1.7179,-1.7202,-1.7218,-1.7232,0,0,0,0,0,0,-1.597,-1.6085,-1.6088,-1.6234,-1.6318,-1.6423,-1.6496,-1.6503,-1.6599,-1.6594,-1.6645,-1.667,-1.6813,-1.6867,-1.6801,-1.7045,-1.6998,-1.7015,-1.7004,-1.702,-1.7032,-1.7018,-1.6781,0,0,0,0,0,-1.5988,-1.6085,-1.6181,-1.6302,-1.6343,-1.6412,-1.6472,-1.6498,-1.6587,-1.6623,-1.6694,-1.6784,-1.6889,-1.6957,-1.7059,-1.7215,-1.7243,-1.7283,-1.7295,-1.7305,-1.732,-1.7412,-1.7432,-1.7216,-1.7216,-1.7216,0,0,-1.6029,-1.6104,-1.6162,-1.6306,-1.6373,-1.6476,-1.6442,-1.6551,-1.6629,-1.6641,-1.678,-1.6836,-1.6939,-1.709,-1.716,-1.714,-1.7385,-1.7317,-1.7324,-1.7334,-1.7424,-1.7444,-1.7462,-1.7223,-1.7222,-1.7221,0,0,-1.6155,-1.6219,-1.6329,-1.6397,-1.65,-1.6545,-1.6572,-1.6677,-1.6714,-1.6854,-1.6866,-1.6961,-1.7139,-1.7214,-1.7275,-1.7433,-1.7439,-1.7465,-1.753,-1.7619,-1.7636,-1.7651,-1.7712,-1.7733,-1.7479,-1.7479,-1.7479,0,-1.6193,-1.6344,-1.6384,-1.6494,-1.6559,-1.6573,-1.6687,-1.6752,-1.6884,-1.693,-1.6904,-1.7132,-1.7202,-1.7373,-1.7412,-1.7459,-1.7495,-1.7453,-1.763,-1.7646,-1.7661,-1.7719,-1.7741,-1.7482,-1.7481,-1.7481,-1.7481,0,-1.6388,-1.6494,-1.657,-1.6696,-1.6769,-1.688,-1.6941,-1.7011,-1.7031,-1.708,-1.7226,-1.731,-1.7432,-1.7474,-1.7494,-1.765,-1.7634,-1.7618,-1.7574,-1.7683,-1.7739,-1.7762,-1.7485,-1.7484,-1.7484,-1.7483,0,0,-1.6526,-1.6673,-1.6701,-1.676,-1.6875,-1.6959,-1.7073,-1.7189,-1.7251,-1.7341,-1.7441,-1.7593,-1.7581,-1.765,-1.768,-1.7757,-1.7882,-1.7733,-1.7736,-1.7761,-1.8064,-1.8078,-1.8102,-1.7886,-1.789,-1.7894,-1.8057,0,-1.6668,-1.6867,-1.6908,-1.7083,-1.7184,-1.72,-1.73,-1.7383,-1.7433,-1.7529,-1.7585,-1.7694,-1.7666,-1.7709,-1.7786,-1.785,-1.7945,-1.7839,-1.7984,-1.7988,-1.796,-1.8131,-1.8145,-1.8295,-1.8079,-1.8082,-1.8085,0,-1.6859,-1.6954,-1.7138,-1.7244,-1.7288,-1.7376,-1.7489,-1.7578,-1.7675,-1.7707,-1.7785,-1.7807,-1.7931,-1.7878,-1.8051,-1.7978,-1.804,-1.8081,-1.8088,-1.8106,-1.8045,-1.8157,-1.8343,-1.8367,-1.8119,-1.8116,-1.8114,0,-1.6947,-1.712,-1.7254,-1.7303,-1.7428,-1.7491,-1.7547,-1.764,-1.7708,-1.7808,-1.7854,-1.7966,-1.8029,-1.8118,-1.8171,-1.8127,-1.8342,-1.8292,-1.8376,-1.8375,-1.8422,-1.8419,-1.8624,-1.8456,-1.8456,-1.8455,-1.8455,0,-1.7103,-1.7216,-1.7295,-1.7378,-1.7507,-1.7554,-1.7681,-1.7737,-1.782,-1.7917,-1.7938,-1.8029,-1.8092,-1.8194,-1.8236,-1.8376,-1.8403,-1.8435,-1.8446,-1.8436,-1.8432,-1.8479,-1.8471,-1.8461,-1.846,-1.8459,-1.8458,0,-1.7222,-1.7279,-1.7427,-1.7533,-1.7563,-1.7654,-1.7747,-1.783,-1.788,-1.8003,-1.8035,-1.8116,-1.8236,-1.8297,-1.8448,-1.8477,-1.8636,-1.8638,-1.8603,-1.8608,-1.8689,-1.8682,-1.8934,-1.8972,-1.8775,-1.8776,-1.8778,0,-1.732,-1.7407,-1.7523,-1.7589,-1.7645,-1.775,-1.7821,-1.7872,-1.7945,-1.8064,-1.8134,-1.8255,-1.8355,-1.8548,-1.8622,-1.8738,-1.8746,-1.8827,-1.8764,-1.8752,-1.8753,-1.8748,-1.876,-1.8839,-1.8841,-1.8842,-1.8843,0,-1.7488,-1.7513,-1.7612,-1.7722,-1.7806,-1.7896,-1.7984,-1.8038,-1.8104,-1.8186,-1.8308,-1.8386,-1.854,-1.8662,-1.8784,-1.8845,-1.8858,-1.8862,-1.8889,-1.888,-1.8858,-1.8876,-1.8637,-1.8857,-1.8856,-1.8855,-1.8854,-1.8853,-1.7603,-1.7683,-1.7778,-1.7889,-1.7961,-1.8045,-1.8129,-1.819,-1.8292,-1.8421,-1.8445,-1.8577,-1.8676,-1.8841,-1.8906,-1.9012,-1.8996,-1.9032,-1.9043,-1.9052,-1.9058,-1.8838,-1.9034,-1.9034,-1.9034,-1.9034,-1.9033,0,-1.7776,-1.7838,-1.794,-1.8063,-1.8152,-1.8152,-1.8252,-1.8327,-1.8442,-1.8532,-1.863,-1.8773,-1.8892,-1.8976,-1.9098,-1.9168,-1.9177,-1.9199,-1.9196,-1.9211,-1.9064,-1.9031,-1.919,-1.9189,-1.9189,-1.9189,-1.9189,-1.9189,-1.7877,-1.8014,-1.805,-1.8225,-1.8287,-1.8414,-1.8472,-1.855,-1.8623,-1.8781,-1.888,-1.8933,-1.9022,-1.9151,-1.9262,-1.9284,-1.933,-1.9353,-1.9376,-1.9237,-1.9221,-1.9205,-1.9175,-1.9361,-1.9361,-1.9515,-1.9516,-1.9517]},{"header":{"parameterUnit":"m.s-1","parameterCategory":1,"la1":30.2991,"la2":30.254,"lo1":-89.0895,"lo2":-89.0444,"dy":0.0017,"dx":0.0017,"nx":28,"ny":28,"refTime":"2024-05-17T03:00:00:Z","depth":0,"parameterNumber":3,"parameterNumberName":"V-component_of_WINDS"},"data":[0,0,0,0,0,0,0,0,0,0,0,0,0,0,0,0,0,0,0,0,0,0,0,0,0,0,0,0,0,0,0,0,0,0,0,0,0,0,0,0,0,0,0,0,0,0,0,0,0,0,0,0,0,0,0,0,0,0,3.2251,3.2252,0,3.2329,3.233,3.2331,3.2351,3.2351,3.235,3.235,3.2427,3.243,3.2432,0,0,0,0,0,0,0,0,0,0,0,0,0,3.2114,3.2116,3.2251,3.2252,3.2253,3.2329,3.233,3.2331,3.2351,3.2351,3.235,3.235,3.2427,3.243,3.2433,0,0,0,0,0,0,0,0,0,0,0,0,0,3.2181,3.2117,3.2251,3.2272,3.2275,3.2329,3.233,3.2332,3.2351,3.2351,3.235,3.2349,3.2426,3.2429,3.2433,3.2471,0,0,3.2445,3.2446,0,0,0,0,0,0,0,0,3.2177,3.2186,3.2268,3.2271,3.2274,3.233,3.2311,3.2378,3.2352,3.2322,3.235,3.2349,3.2395,3.2402,3.2418,3.2474,3.2478,3.2445,3.2447,3.2449,3.245,0,0,0,0,0,0,0,3.2172,3.2182,3.2282,3.2269,3.2273,3.2276,3.2285,3.2323,3.2362,3.2325,3.2326,3.2336,3.2397,3.2414,3.242,3.2479,3.2445,3.2448,3.245,3.2452,3.2568,3.2569,0,0,0,0,0,0,3.2164,3.2178,3.2279,3.2284,3.2223,3.2279,3.2289,3.2312,3.2361,3.2368,3.2336,3.2336,3.2408,3.2415,3.2423,3.2469,3.2449,3.2452,3.2454,3.2567,3.2568,3.2569,0,0,0,0,0,0,3.2161,3.2173,3.2276,3.2232,3.2245,3.2282,3.2309,3.2314,3.2332,3.237,3.2377,3.2347,3.2408,3.2417,3.2458,3.2472,3.2454,3.2457,3.2566,3.2567,3.2568,3.2562,0,0,0,0,0,0,3.2157,3.2172,3.2188,3.2232,3.2247,3.2312,3.2309,3.2316,3.2339,3.234,3.2382,3.2388,3.2408,3.2453,3.2462,3.2476,3.246,3.2565,3.2567,3.2568,3.2561,3.2562,3.2564,0,0,0,0,0,3.2152,3.2183,3.2189,3.2201,3.2268,3.2313,3.2321,3.2344,3.234,3.2355,3.2379,3.2387,3.2469,3.2457,3.2468,3.2483,3.2564,3.2566,3.2568,3.256,3.2562,3.2564,0,0,0,0,0,0,3.2139,3.2189,3.2196,3.2242,3.2273,3.2316,3.2336,3.2346,3.2378,3.2377,3.2403,3.2412,3.2451,3.2471,3.2457,3.2521,3.2516,3.252,3.2507,3.2509,3.251,3.2504,3.2464,0,0,0,0,0,3.2141,3.2174,3.2216,3.2252,3.2267,3.2299,3.2319,3.2334,3.2367,3.238,3.2407,3.2437,3.247,3.249,3.2522,3.2564,3.2572,3.258,3.2581,3.2582,3.2585,3.2606,3.261,3.2575,3.2575,3.2575,0,0,3.2147,3.2178,3.2197,3.225,3.2276,3.2308,3.231,3.2344,3.2368,3.2385,3.2425,3.2446,3.2481,3.2522,3.2541,3.254,3.2597,3.2585,3.2585,3.2588,3.2609,3.2612,3.2615,3.2576,3.2576,3.2576,0,0,3.2172,3.22,3.2233,3.2258,3.2297,3.2318,3.2325,3.2367,3.2381,3.2422,3.2435,3.2462,3.2518,3.2542,3.2562,3.2594,3.2602,3.2604,3.2611,3.2632,3.2634,3.2637,3.2647,3.265,3.2607,3.2607,3.2607,0,3.2174,3.2224,3.2248,3.2281,3.2303,3.232,3.2352,3.2375,3.2422,3.2436,3.2434,3.2503,3.2528,3.2574,3.2581,3.2597,3.2605,3.2599,3.2632,3.2635,3.2638,3.2648,3.2651,3.2607,3.2607,3.2607,3.2607,0,3.2222,3.2257,3.2278,3.2323,3.2347,3.238,3.2407,3.2428,3.244,3.246,3.2501,3.2531,3.2569,3.2581,3.2593,3.2628,3.2625,3.2628,3.2623,3.2641,3.265,3.2654,3.2606,3.2606,3.2606,3.2606,0,0,3.2243,3.23,3.2307,3.2327,3.237,3.2396,3.2428,3.2465,3.2482,3.2514,3.254,3.2586,3.2587,3.2609,3.2624,3.2642,3.2663,3.2642,3.2643,3.2644,3.2701,3.2699,3.2703,3.2669,3.267,3.267,3.2698,0,3.2273,3.2332,3.2354,3.2401,3.2432,3.2447,3.2475,3.2503,3.2522,3.255,3.2571,3.2602,3.2603,3.2616,3.2635,3.2657,3.2675,3.2655,3.2692,3.2693,3.2682,3.2708,3.2706,3.2731,3.2702,3.2703,3.2703,0,3.2316,3.2348,3.2399,3.2436,3.245,3.2474,3.2509,3.2536,3.2567,3.258,3.2604,3.2617,3.2649,3.2643,3.2686,3.2672,3.2688,3.2701,3.2703,3.2706,3.2699,3.2711,3.2739,3.2743,3.271,3.2709,3.2709,0,3.2324,3.2379,3.2416,3.2433,3.2478,3.2494,3.2514,3.2545,3.2565,3.2595,3.2608,3.2641,3.2659,3.2683,3.2704,3.2698,3.2745,3.2741,3.2755,3.2754,3.2764,3.2763,3.2794,3.2776,3.2776,3.2776,3.2776,0,3.2355,3.2385,3.242,3.2443,3.2476,3.25,3.2532,3.2552,3.2579,3.2605,3.262,3.2643,3.267,3.2696,3.2713,3.2745,3.2753,3.2763,3.2767,3.2761,3.276,3.2772,3.277,3.2777,3.2776,3.2776,3.2776,0,3.2369,3.2394,3.2435,3.2474,3.2484,3.2507,3.254,3.2561,3.2581,3.2613,3.2622,3.2652,3.2683,3.2707,3.2748,3.2758,3.2793,3.2797,3.2782,3.2784,3.2796,3.2794,3.2835,3.2841,3.2819,3.282,3.282,0,3.2387,3.241,3.2451,3.2469,3.2489,3.2519,3.2539,3.2563,3.2583,3.262,3.2637,3.2669,3.2697,3.2746,3.2771,3.2802,3.2806,3.2818,3.2811,3.2804,3.2805,3.2803,3.2805,3.2819,3.2819,3.2819,3.282,0,3.2414,3.2425,3.2455,3.2488,3.2512,3.254,3.2567,3.2581,3.2609,3.2631,3.2664,3.2685,3.2726,3.2758,3.2791,3.2809,3.2819,3.2822,3.2826,3.282,3.281,3.2815,3.2784,3.2821,3.282,3.282,3.282,3.282,3.243,3.2451,3.2482,3.2514,3.2537,3.2562,3.2584,3.2606,3.2634,3.267,3.2681,3.2715,3.2744,3.2789,3.2808,3.2833,3.2833,3.284,3.2841,3.2843,3.2842,3.2807,3.2839,3.2839,3.2839,3.2839,3.2839,0,3.2457,3.2478,3.2507,3.2545,3.2569,3.2577,3.2607,3.2626,3.2656,3.2683,3.2709,3.2746,3.2776,3.2803,3.2834,3.2849,3.2853,3.2856,3.2855,3.2858,3.2841,3.2833,3.2851,3.2851,3.2851,3.2851,3.2851,3.2851,3.2475,3.2509,3.2524,3.2569,3.259,3.2623,3.2639,3.2662,3.2683,3.2723,3.2749,3.2766,3.2792,3.2825,3.2853,3.2859,3.287,3.2871,3.2879,3.2861,3.286,3.2858,3.2851,3.2873,3.2873,3.2894,3.2894,3.2894]}]]